Location: Banksville Park
(38.5557°N, 75.1182°W)
Time: 13:15:34
(UTC+00:00)

Cosmos 1980 Rocket - Pass Details

Date: 19 September 2020
Orbit: 831 x 848 km, 71.0° (Epoch: 22 October)

Event Time Altitude Azimuth Distance (km) Brightness Sun altitude
Exits shadow 07:40:56 39° 82° (E) 1,251 3.3 -34.8°
Drops below altitude 10° 07:45:20 10° 37° (NE) 2,469 5.4 -34.1°
Sets 07:47:54 0° 30° (NNE) 3,405 6.2 -33.6°
